Location: Unspecified
(47.5840°N, 122.3000°W)
Time: 18:57:26
(UTC+00:00)

USA 59 Rocket - Pass Details

Date: 21 March 2026
Orbit: 368 x 1667 km, 63.3° (Epoch: 14 April)

Event Time Altitude Azimuth Distance (km) Brightness Sun altitude
Rises 03:26:57 0° 200° (SSW) 2,819 3.5 -11.6°
Reaches altitude 10° 03:29:33 10° 192° (SSW) 1,745 2.4 -12.0°
Maximum altitude 03:32:59 35° 126° (SE) 738 0.0 -12.6°
Enters shadow 03:34:48 19° 70° (ENE) 1,065 0.8 -12.9°
